Temp
-14 -14 -14 -14 -14 -13 -13 -14 -13 -13 -13 -13 -12 -12 -12 -12 -12 -12 -12 -12 -12 -12 -12 -12 -12 -12 -12 -12 -12 -12 -11 -12 -11 -11 -11 -11 -12 -12 -11 -11 -11 -11 -11 -11
-14 -14 -14 -14 -14 -14 -14 -14 -14 -14 -14 -13 -13 -13 -13 -13 -12 -12 -12 -12 -12 -12 -12 -12 -12 -12 -12 -12 -12 -12 -12 -12 -12 -12 -12 -12 -12 -12 -12 -12 -11 -11 -11 -11
-14 -14 -14 -14 -14 -14 -14 -14 -14 -14 -14 -14 -13 -13 -13 -13 -13 -13 -13 -13 -13 -13 -13 -13 -13 -13 -13 -12 -12 -12 -12 -12 -12 -12 -12 -12 -12 -12 -12 -12 -12 -12 -12 -12
-15 -14 -14 -14 -14 -14 -14 -14 -14 -14 -15 -15 -14 -14 -14 -13 -13 -13 -13 -13 -13 -13 -13 -13 -13 -13 -13 -13 -13 -13 -13 -12 -12 -12 -12 -12 -12 -12 -12 -12 -12 -12 -12 -12
-15 -15 -15 -15 -15 -14 -14 -15 -15 -15 -15 -15 -14 -15 -13 -13 -13 -14 -14 -14 -14 -14 -14 -14 -13 -13 -13 -13 -13 -13 -13 -13 -13 -13 -13 -12 -12 -12 -12 -12 -12 -12 -12 -13
-15 -15 -15 -15 -15 -15 -15 -15 -15 -15 -15 -15 -15 -15 -14 -14 -13 -14 -14 -14 -14 -14 -14 -14 -14 -14 -14 -14 -14 -13 -13 -13 -13 -13 -13 -13 -13 -13 -13 -13 -13 -13 -12 -13
-16 -15 -15 -15 -15 -15 -15 -15 -16 -15 -15 -14 -15 -15 -14 -14 -14 -14 -14 -14 -14 -14 -14 -14 -14 -14 -14 -14 -14 -14 -14 -14 -14 -14 -14 -14 -14 -14 -13 -13 -13 -13 -13 -13
-16 -15 -15 -15 -15 -15 -16 -16 -16 -16 -16 -16 -15 -15 -14 -15 -15 -15 -15 -15 -15 -15 -15 -14 -14 -14 -14 -14 -14 -14 -14 -14 -14 -14 -14 -14 -14 -14 -14 -14 -14 -14 -14 -14
-16 -16 -16 -16 -16 -16 -16 -16 -16 -16 -17 -17 -16 -15 -15 -15 -15 -15 -15 -15 -15 -15 -15 -15 -15 -15 -15 -15 -15 -15 -15 -15 -15 -15 -15 -15 -15 -15 -15 -15 -14 -14 -14 -14
-17 -17 -17 -17 -17 -17 -17 -17 -17 -17 -17 -17 -16 -16 -15 -15 -16 -16 -16 -16 -16 -16 -16 -16 -16 -16 -16 -16 -16 -16 -16 -15 -15 -15 -15 -15 -15 -15 -15 -15 -15 -15 -15 -15
-17 -17 -17 -17 -17 -17 -17 -17 -17 -17 -17 -17 -17 -18 -16 -16 -16 -17 -17 -17 -17 -17 -17 -17 -17 -17 -16 -16 -16 -16 -16 -16 -16 -16 -16 -16 -16 -16 -15 -15 -15 -15 -15 -15
-18 -18 -17 -18 -18 -18 -18 -18 -18 -19 -19 -18 -18 -18 -18 -18 -18 -18 -17 -17 -17 -17 -17 -17 -17 -17 -16 -16 -16 -16 -16 -16 -16 -16 -16 -16 -16 -16 -16 -16 -16 -16 -16 -16
-19 -19 -19 -19 -19 -19 -19 -19 -19 -19 -19 -19 -19 -18 -18 -18 -18 -18 -18 -18 -18 -18 -17 -17 -17 -17 -17 -17 -17 -17 -16 -16 -16 -16 -16 -16 -16 -16 -16 -16 -16 -16 -16 -16
-20 -19 -19 -19 -19 -19 -19 -19 -19 -19 -19 -19 -19 -19 -19 -19 -19 -18 -18 -18 -18 -18 -18 -18 -18 -18 -18 -17 -17 -17 -17 -17 -17 -17 -17 -17 -17 -17 -17 -17 -17 -17 -17 -17
-20 -20 -20 -20 -20 -20 -20 -20 -20 -20 -20 -20 -20 -20 -20 -20 -19 -19 -19 -19 -19 -19 -19 -19 -19 -19 -18 -18 -18 -18 -18 -18 -18 -18 -18 -17 -17 -17 -17 -18 -18 -18 -18 -18
-20 -20 -20 -20 -20 -20 -20 -20 -20 -21 -21 -21 -21 -20 -20 -20 -20 -20 -20 -20 -20 -20 -20 -20 -19 -19 -19 -19 -19 -19 -19 -19 -19 -19 -19 -19 -19 -19 -19 -19 -19 -19 -19 -19
-21 -21 -21 -20 -21 -21 -21 -21 -21 -21 -21 -21 -21 -21 -21 -21 -21 -21 -21 -21 -21 -21 -21 -21 -21 -21 -21 -21 -21 -22 -22 -22 -22 -22 -23 -23 -23 -23 -23 -23 -23 -23 -23 -23
-21 -21 -21 -21 -21 -21 -21 -21 -21 -21 -22 -22 -22 -22 -22 -22 -22 -22 -22 -22 -22 -22 -23 -23 -23 -24 -24 -25 -25 -26 -26 -26 -26 -27 -27 -26 -26 -26 -26 -26 -26 -26 -26 -26
-22 -22 -22 -22 -22 -22 -22 -22 -22 -22 -22 -23 -23 -23 -23 -24 -24 -23 -25 -25 -25 -26 -26 -27 -28 -28 -29 -29 -29 -29 -29 -29 -29 -29 -29 -29 -29 -29 -29 -29 -29 -29 -29 -28
-23 -23 -23 -23 -23 -23 -23 -23 -23 -23 -23 -24 -24 -25 -25 -26 -26 -27 -28 -29 -29 -29 -29 -30 -30 -30 -30 -31 -31 -31 -31 -31 -31 -31 -31 -31 -31 -31 -31 -31 -31 -31 -31 -31
-23 -23 -23 -23 -24 -23 -24 -24 -24 -24 -25 -25 -26 -27 -28 -29 -30 -30 -31 -31 -31 -31 -31 -31 -31 -32 -32 -32 -32 -32 -32 -32 -32 -32 -32 -32 -32 -32 -32 -32 -32 -32 -32 -32
-24 -24 -24 -24 -24 -24 -25 -25 -25 -27 -27 -28 -29 -30 -30 -30 -31 -31 -31 -32 -32 -32 -32 -32 -32 -32 -32 -32 -32 -33 -33 -33 -33 -33 -33 -33 -33 -33 -32 -32 -32 -32 -32 -32
-25 -24 -25 -25 -25 -26 -26 -27 -29 -30 -30 -30 -31 -31 -31 -31 -32 -32 -32 -32 -32 -32 -32 -32 -33 -33 -33 -33 -33 -33 -34 -34 -34 -34 -34 -33 -33 -33 -33 -33 -33 -33 -33 -33
-25 -25 -25 -26 -27 -28 -29 -30 -31 -31 -31 -31 -31 -32 -32 -31 -32 -32 -32 -32 -32 -33 -33 -34 -34 -35 -35 -35 -35 -35 -35 -35 -35 -35 -35 -35 -35 -35 -35 -34 -34 -34 -34 -34
-26 -26 -28 -29 -30 -30 -31 -31 -32 -32 -32 -32 -32 -32 -32 -32 -32 -32 -33 -33 -34 -34 -35 -36 -36 -36 -36 -37 -37 -37 -36 -36 -37 -37 -37 -37 -37 -36 -36 -36 -36 -36 -36 -36
-28 -29 -30 -31 -31 -31 -32 -32 -32 -32 -32 -32 -32 -32 -32 -33 -33 -33 -34 -34 -35 -36 -36 -37 -37 -38 -38 -38 -38 -38 -38 -38 -37 -38 -38 -38 -37 -37 -37 -37 -37 -38 -37 -37
Height
5709 5714 5719 5720 5722 5723 5729 5732 5734 5736 5740 5740 5741 5745 5747 5749 5752 5754 5756 5757 5759 5760 5761 5762 5763 5764 5764 5765 5766 5767 5768 5769 5769 5769 5771 5772 5772 5772 5773 5774 5775 5776 5778 5779
5706 5711 5712 5714 5718 5721 5724 5728 5730 5731 5734 5734 5736 5738 5740 5743 5745 5747 5749 5750 5751 5753 5754 5755 5756 5757 5757 5758 5758 5759 5760 5761 5762 5762 5763 5764 5764 5764 5765 5766 5767 5768 5769 5771
5701 5705 5707 5710 5713 5716 5719 5722 5724 5725 5728 5728 5728 5731 5733 5735 5737 5739 5740 5742 5743 5744 5745 5746 5747 5748 5748 5749 5750 5750 5751 5752 5753 5754 5754 5754 5754 5754 5754 5756 5758 5759 5760 5761
5695 5699 5702 5704 5707 5710 5713 5715 5717 5719 5722 5724 5722 5723 5724 5726 5729 5731 5732 5734 5735 5736 5736 5737 5738 5738 5739 5740 5740 5740 5741 5741 5742 5743 5744 5744 5744 5744 5744 5745 5746 5747 5749 5751
5690 5693 5695 5698 5700 5702 5705 5709 5710 5711 5713 5714 5716 5716 5711 5718 5721 5723 5725 5725 5725 5726 5727 5727 5727 5728 5728 5729 5730 5730 5730 5731 5731 5731 5732 5732 5733 5733 5733 5734 5734 5734 5737 5739
5682 5687 5689 5691 5693 5695 5698 5700 5702 5703 5703 5703 5708 5709 5704 5709 5712 5714 5714 5715 5716 5716 5716 5717 5716 5717 5717 5717 5718 5718 5719 5719 5719 5719 5719 5719 5720 5720 5721 5721 5721 5722 5724 5725
5676 5678 5681 5683 5685 5687 5689 5691 5692 5693 5692 5696 5697 5695 5697 5700 5702 5703 5703 5704 5704 5705 5705 5706 5706 5706 5705 5706 5706 5706 5705 5706 5706 5706 5706 5706 5706 5707 5707 5707 5708 5708 5710 5711
5667 5670 5672 5676 5677 5679 5681 5681 5683 5682 5683 5686 5684 5684 5688 5690 5690 5690 5690 5691 5691 5692 5692 5692 5692 5693 5692 5692 5692 5692 5692 5691 5691 5691 5691 5691 5691 5692 5692 5692 5693 5693 5694 5696
5660 5660 5664 5666 5668 5670 5671 5671 5674 5674 5674 5673 5672 5674 5676 5678 5678 5677 5677 5677 5677 5677 5677 5677 5677 5677 5676 5676 5676 5676 5676 5675 5675 5675 5675 5675 5675 5675 5675 5675 5676 5676 5677 5678
5651 5652 5655 5657 5659 5660 5661 5664 5664 5663 5663 5662 5663 5658 5660 5663 5663 5663 5663 5662 5662 5661 5661 5661 5661 5660 5660 5660 5659 5659 5658 5658 5657 5657 5657 5656 5657 5657 5657 5657 5657 5657 5658 5659
5642 5643 5647 5647 5649 5651 5653 5652 5652 5652 5651 5650 5651 5646 5646 5648 5648 5649 5649 5648 5647 5647 5646 5646 5645 5644 5644 5643 5643 5642 5642 5641 5641 5640 5639 5639 5638 5638 5638 5638 5637 5637 5638 5638
5632 5633 5633 5637 5638 5639 5640 5640 5640 5639 5640 5639 5638 5636 5635 5634 5632 5633 5633 5632 5631 5630 5629 5628 5628 5627 5626 5625 5624 5623 5622 5622 5622 5621 5620 5619 5619 5618 5617 5617 5617 5617 5617 5617
5621 5622 5623 5624 5627 5628 5629 5630 5630 5629 5629 5627 5625 5626 5623 5622 5620 5618 5616 5614 5614 5612 5611 5609 5607 5606 5605 5604 5602 5601 5600 5599 5597 5597 5596 5595 5595 5595 5595 5595 5594 5594 5594 5594
5613 5615 5616 5617 5617 5619 5619 5619 5618 5617 5616 5615 5612 5612 5609 5607 5604 5602 5599 5596 5594 5593 5590 5588 5585 5583 5581 5579 5577 5575 5574 5573 5572 5571 5570 5569 5568 5567 5567 5567 5567 5568 5568 5568
5605 5606 5606 5607 5607 5607 5607 5607 5606 5605 5604 5601 5600 5597 5594 5591 5587 5584 5580 5577 5575 5572 5568 5566 5563 5560 5557 5554 5551 5548 5546 5544 5543 5541 5540 5539 5539 5538 5538 5537 5537 5537 5538 5539
5596 5596 5596 5596 5596 5596 5595 5594 5593 5591 5589 5586 5583 5582 5578 5574 5571 5567 5563 5557 5553 5550 5546 5542 5538 5533 5530 5528 5524 5520 5516 5513 5511 5509 5507 5506 5504 5504 5504 5504 5505 5506 5506 5507
5587 5586 5586 5585 5584 5583 5583 5582 5579 5577 5573 5570 5567 5564 5559 5555 5551 5547 5543 5538 5533 5528 5524 5519 5514 5509 5504 5500 5497 5492 5488 5485 5482 5478 5475 5473 5471 5470 5469 5469 5469 5469 5471 5473
5577 5576 5574 5572 5571 5569 5568 5565 5563 5560 5556 5552 5548 5544 5540 5535 5529 5525 5519 5514 5509 5504 5497 5493 5488 5483 5478 5474 5470 5467 5462 5459 5456 5453 5450 5446 5444 5443 5441 5440 5439 5439 5439 5439
5565 5563 5561 5559 5557 5555 5553 5550 5546 5542 5539 5533 5529 5524 5518 5512 5505 5503 5495 5489 5484 5479 5474 5469 5463 5458 5453 5448 5445 5442 5438 5435 5431 5428 5425 5422 5419 5418 5416 5414 5413 5412 5412 5413
5553 5551 5550 5547 5543 5540 5538 5534 5529 5524 5522 5515 5509 5503 5498 5492 5486 5479 5474 5468 5464 5458 5453 5448 5444 5438 5433 5427 5423 5420 5416 5412 5408 5406 5402 5399 5395 5393 5391 5389 5388 5387 5386 5386
5540 5538 5536 5532 5528 5526 5522 5517 5513 5510 5507 5497 5491 5485 5479 5474 5468 5464 5457 5451 5445 5440 5435 5429 5423 5418 5412 5407 5402 5398 5394 5389 5385 5382 5378 5374 5371 5368 5364 5363 5361 5361 5360 5360
5528 5525 5522 5517 5514 5512 5506 5501 5497 5491 5484 5479 5473 5468 5463 5457 5452 5446 5440 5435 5429 5423 5416 5409 5404 5398 5391 5384 5379 5375 5369 5365 5361 5357 5352 5348 5344 5341 5339 5337 5336 5335 5334 5334
5514 5511 5508 5505 5499 5493 5488 5483 5478 5473 5468 5464 5459 5453 5449 5444 5437 5430 5423 5416 5409 5402 5395 5387 5380 5374 5366 5360 5353 5349 5343 5338 5334 5329 5325 5321 5317 5313 5310 5309 5307 5307 5305 5304
5498 5495 5492 5488 5483 5478 5474 5470 5466 5461 5457 5453 5447 5441 5435 5429 5420 5413 5404 5395 5388 5380 5373 5365 5358 5351 5344 5337 5330 5324 5319 5314 5309 5304 5298 5293 5289 5286 5282 5279 5276 5274 5273 5273
5485 5481 5477 5473 5470 5467 5464 5460 5456 5452 5447 5441 5434 5427 5419 5412 5403 5395 5386 5378 5369 5361 5354 5347 5340 5333 5326 5320 5313 5305 5300 5295 5289 5283 5277 5272 5267 5263 5259 5255 5251 5247 5244 5242
5471 5469 5467 5464 5462 5460 5457 5453 5448 5442 5436 5429 5421 5412 5403 5396 5388 5379 5369 5361 5353 5345 5338 5332 5324 5318 5312 5306 5298 5291 5286 5279 5273 5267 5260 5254 5249 5244 5239 5234 5231 5225 5221 5217
Wind_Speed
29 29 27 30 32 35 33 32 31 31 30 32 34 33 33 33 32 31 31 30 30 30 29 29 29 30 30 30 30 30 30 30 31 31 31 31 31 32 33 33 33 32 31 32
29 26 31 32 33 33 33 32 31 33 31 35 36 36 36 36 35 34 34 34 33 33 33 33 33 34 34 34 34 35 35 34 34 35 35 34 35 37 37 36 37 36 36 35
30 30 31 31 32 32 32 32 32 33 34 36 38 38 39 38 38 38 38 37 37 37 37 37 37 37 38 39 39 39 40 39 39 40 40 40 40 41 42 41 41 40 39 38
31 30 31 31 31 32 32 33 33 35 33 34 40 42 41 41 41 40 40 40 40 40 41 41 41 42 42 43 44 44 44 44 44 44 44 44 45 46 47 46 46 45 43 42
29 29 30 32 32 34 35 32 34 35 35 38 40 41 48 44 43 41 41 42 43 44 44 45 46 46 47 47 47 48 48 49 50 50 50 50 50 51 52 52 52 52 49 47
31 29 31 33 33 35 35 36 36 38 40 44 41 42 49 48 45 43 44 45 45 46 47 47 48 48 48 49 49 49 50 50 51 51 52 53 53 53 54 54 56 56 55 53
32 33 33 34 36 37 37 37 38 41 43 44 44 46 49 48 46 45 45 46 46 47 48 48 49 50 51 52 52 53 53 53 53 54 55 55 56 56 57 57 58 59 59 58
34 36 36 36 38 39 39 40 40 41 41 40 46 47 48 46 47 48 49 50 51 51 53 54 55 55 56 57 57 58 58 59 59 60 60 60 61 61 62 62 63 64 64 64
32 36 34 34 36 37 39 39 39 40 40 45 50 51 52 52 52 53 54 55 55 56 57 57 57 58 59 60 61 62 63 64 65 66 66 67 67 68 68 68 68 69 70 70
37 39 39 38 38 40 42 42 42 44 47 49 52 56 58 56 55 55 53 53 53 54 54 54 55 56 56 57 58 58 59 61 62 64 66 68 70 71 73 74 75 75 75 75
38 41 41 41 42 43 43 47 48 48 51 50 50 52 58 56 54 52 51 52 53 54 56 57 58 59 60 61 61 62 62 63 64 65 66 68 69 70 71 73 75 77 79 80
39 40 43 41 42 43 44 45 46 45 45 47 47 51 52 53 54 55 55 56 57 58 60 61 62 63 65 66 68 69 70 70 70 71 72 72 73 74 76 77 78 78 78 80
33 36 35 35 37 37 38 37 39 42 44 48 50 53 55 56 57 58 60 61 63 64 66 68 70 71 72 74 75 76 78 79 80 81 81 82 82 81 81 82 83 84 85 85
30 32 33 35 37 38 40 41 43 44 46 48 51 53 55 58 61 63 65 68 69 71 72 74 76 78 79 80 82 83 84 85 86 87 88 89 90 90 90 91 90 90 91 92
30 32 33 35 37 39 41 42 44 46 48 51 53 55 58 61 64 67 70 72 73 76 78 79 81 83 84 86 87 89 91 92 93 94 95 95 96 96 96 97 97 97 98 98
32 33 34 36 38 40 42 45 46 49 50 54 56 59 62 65 67 70 72 75 78 80 81 83 86 88 89 90 91 93 95 96 97 97 98 98 99 99 99 99 98 98 99 100
31 33 36 39 40 43 46 47 50 53 56 58 61 63 65 67 69 72 75 77 80 82 84 86 88 89 91 92 93 93 94 95 96 96 96 95 93 92 91 90 91 91 91 92
35 37 40 42 45 48 51 54 54 56 58 60 63 65 68 70 74 76 79 81 82 83 83 84 85 85 86 86 84 83 82 82 82 82 82 83 83 83 83 83 83 83 83 83
38 41 43 45 48 51 53 55 57 59 61 63 65 67 70 72 74 77 77 79 80 79 79 78 76 75 75 76 76 75 75 75 76 77 77 77 78 78 79 79 78 78 78 77
42 43 45 48 52 54 56 57 58 62 63 63 65 68 70 72 71 73 70 68 68 69 69 70 70 70 71 71 72 73 74 75 76 76 77 78 78 78 78 79 79 78 78 77
44 47 50 52 54 55 56 58 60 61 62 64 65 65 63 60 60 59 59 62 63 64 65 66 67 68 69 71 72 72 74 75 75 76 76 76 76 75 76 76 76 77 77 78
48 50 51 52 54 56 56 58 59 58 58 56 54 53 54 54 54 54 56 58 61 63 65 68 69 71 73 75 76 77 78 79 79 79 80 81 81 81 81 81 81 81 80 78
48 49 50 51 52 54 54 52 49 46 45 46 46 47 49 51 54 57 59 63 67 70 72 75 76 77 79 80 81 81 81 82 83 84 85 86 86 87 87 86 85 84 83 83
48 50 50 50 48 46 42 40 39 39 40 43 46 49 52 56 60 62 64 67 68 69 69 68 66 65 64 64 64 65 65 65 65 66 68 70 71 73 76 79 82 85 88 89
47 45 42 39 35 33 31 32 35 38 41 46 50 53 56 57 58 59 60 61 60 58 56 55 54 54 54 54 54 55 56 55 56 57 59 60 61 62 64 66 68 71 73 76
36 32 28 26 25 27 29 31 35 40 44 48 49 50 51 51 50 51 52 52 51 51 50 49 49 49 49 48 48 49 49 49 49 49 50 52 53 55 57 59 60 62 64 66
Wind_Direction
217 217 220 220 216 216 216 220 224 227 226 232 232 236 237 240 243 243 244 245 244 246 249 252 254 255 255 255 256 256 255 256 258 259 259 258 259 262 264 265 265 264 264 266
221 220 223 223 224 224 224 226 228 231 232 235 237 238 240 241 245 247 249 250 252 253 254 255 256 257 259 259 260 260 260 258 259 260 260 260 259 259 260 260 261 263 263 263
224 223 228 231 233 236 235 233 235 236 234 239 242 244 245 245 247 249 251 253 255 257 258 258 259 259 259 259 260 261 262 261 260 260 261 261 262 262 262 262 263 263 262 262
229 229 233 234 236 238 240 239 240 242 242 244 246 251 247 251 251 252 255 258 259 260 261 261 261 261 261 262 262 263 263 263 263 262 262 262 263 264 264 264 263 263 263 262
235 233 234 236 237 239 241 241 243 246 248 247 247 251 253 250 250 254 256 258 259 260 261 262 262 262 262 262 262 262 263 264 265 265 264 263 262 263 263 263 263 262 261 261
239 238 238 240 241 243 246 247 247 248 250 252 253 252 255 257 258 258 259 259 259 260 260 260 261 262 263 263 263 263 263 263 263 264 264 265 264 264 262 262 262 263 262 261
245 242 241 242 244 246 248 250 253 253 252 256 256 257 256 259 259 259 260 260 260 259 260 260 261 261 261 261 262 262 263 262 262 263 263 263 263 264 264 263 263 263 262 262
246 247 245 247 248 250 252 251 252 254 257 260 254 256 259 264 264 263 263 265 265 266 265 264 263 262 263 263 262 262 261 261 261 261 260 260 261 261 262 262 263 263 264 263
249 249 248 247 247 248 248 250 251 256 257 262 262 264 263 264 266 269 268 267 267 268 267 266 266 265 264 263 262 262 262 261 260 259 259 259 259 259 259 260 261 262 262 262
251 253 251 250 249 248 251 253 257 259 263 266 270 270 269 269 270 269 269 268 268 267 267 266 266 265 263 262 262 261 261 261 262 262 262 261 260 259 259 260 259 259 260 260
251 253 252 252 252 255 256 257 259 263 264 264 264 265 271 270 269 268 267 267 267 267 267 268 267 266 266 266 265 265 265 265 265 265 265 266 265 264 263 262 261 261 260 260
250 251 255 256 256 257 258 260 261 261 264 264 267 267 269 272 273 275 275 274 273 273 273 273 272 272 271 271 270 269 268 268 268 267 266 266 265 265 265 265 264 263 262 261
251 253 259 261 262 262 262 262 262 262 263 266 267 269 271 272 274 275 276 277 277 277 277 276 276 276 276 275 274 273 273 272 272 271 270 269 268 267 265 263 263 263 263 262
251 254 256 260 262 263 262 262 262 262 264 266 267 269 272 274 274 275 276 277 277 277 278 278 277 277 277 276 276 275 274 273 272 272 271 270 270 269 268 267 265 263 261 260
258 259 260 261 262 263 264 264 266 267 269 270 273 275 275 276 277 277 278 279 279 279 279 279 279 278 278 278 277 277 276 275 275 274 273 272 270 269 268 267 266 265 264 262
259 261 262 264 265 266 267 269 270 272 274 275 277 277 278 278 278 279 280 280 281 281 281 281 281 281 280 279 278 278 277 276 276 275 274 273 272 271 270 268 267 266 264 263
265 268 270 271 271 272 272 276 278 279 280 280 280 280 280 280 280 280 280 281 281 281 281 280 279 278 278 277 277 276 276 276 275 275 276 276 275 274 273 272 271 268 266 264
271 273 274 276 277 277 281 282 283 283 284 284 284 283 283 282 282 283 284 284 283 282 281 280 279 279 278 278 277 277 277 276 276 275 275 274 274 273 272 271 270 269 268 267
275 277 278 278 280 282 285 286 286 286 287 287 286 285 284 285 285 285 284 283 282 281 281 281 281 281 281 280 280 279 278 277 276 276 276 275 274 274 273 272 271 270 268 267
276 277 279 283 285 286 287 287 288 288 287 287 286 286 286 285 283 284 283 283 282 283 283 283 282 282 282 281 281 280 279 279 278 277 276 276 275 274 273 272 271 271 270 268
278 281 284 285 286 287 286 285 286 286 286 286 285 284 285 286 286 285 285 286 286 285 285 284 284 284 283 282 281 280 280 279 278 278 277 276 275 274 273 272 271 270 269 269
283 285 286 286 287 286 286 286 285 286 285 286 287 287 288 288 289 289 289 288 288 287 286 286 285 284 284 283 282 281 280 279 279 278 277 276 275 274 273 272 271 270 269 267
284 285 285 286 286 287 288 288 289 289 289 290 291 292 292 292 291 291 291 290 290 289 289 288 287 286 285 284 284 283 282 281 280 279 277 276 275 275 274 273 272 270 269 268
286 286 286 288 288 288 289 290 291 293 294 295 295 294 295 295 294 294 294 293 292 291 291 291 290 289 289 288 288 287 286 285 284 283 282 280 278 277 276 274 273 272 269 267
284 285 285 285 287 289 291 294 296 297 297 298 299 299 298 299 298 297 296 295 296 296 296 296 295 295 294 294 294 293 293 293 291 289 287 285 284 283 281 280 278 276 274 271
284 284 283 285 288 293 295 297 299 302 303 303 304 305 305 304 304 303 303 303 303 302 300 300 299 297 298 298 296 296 297 297 296 295 293 291 290 288 286 284 281 280 279 276